View from above orbital plane
|
View from above satellite
|
Ground track
|
The orbit data is extracted from the following two-line orbital elements,
1 42832U 17042H 21023.63312191 .00000051 00000-0 10382-4 0 9991
2 42832 97.4917 261.1438 0012263 268.3901 91.5913 14.91414513192122
Epoch (UTC): | 23 January 2021 15:11:41 |
Eccentricity: | 0.0012263 |
inclination: | 97.4917° |
perigee height: | 585 km |
apogee height: | 602 km |
right ascension of ascending node: | 261.1438° |
argument of perigee: | 268.3901° |
revolutions per day: | 14.91414513 |
mean anomaly at epoch: | 91.5913° |
orbit number at epoch: | 19212 |
The dashed part of the orbit path shows where the satellite is in the earth's shadow,
|
|